Location: Anywhere
(41.5000°N, 71.4000°W)
Time: 07:24:11
(UTC-04:00)

IRAS - Pass Details

Date: 29 January 2020
Orbit: 879 x 905 km, 99.0° (Epoch: 01 July)

Event Time Altitude Azimuth Distance (km) Brightness Sun altitude
Rises 18:28:52 0° 7° (N) 3,539 7.8 -17.3°
Reaches altitude 10° 18:31:23 10° 1° (N) 2,594 7.1 -17.7°
Maximum altitude 18:36:48 43° 292° (WNW) 1,248 6.0 -18.7°
Drops below altitude 10° 18:42:11 10° 222° (SW) 2,573 7.9 -19.7°
Sets 18:44:40 0° 216° (SW) 3,507 8.5 -20.2°
